Olathe, KS

10:28 PM CST on December 04, 2016 (GMT -0600)
Johnson County Executive

Weather History for KOJC - January, 2014

Change the Weather History Date:

Thursday, January 9, 2014

  Actual Average Record
Temperature  
Mean Temperature 24 °F 30 °F  
Max Temperature 31 °F 39 °F 60 °F (1939)
Min Temperature 16 °F 21 °F -7 °F (1973)
Degree Days  
Heating Degree Days 41 35  
Month to date heating degree days 436 315  
Since 1 July heating degree days 2601 2280  
Cooling Degree Days 0 0  
Month to date cooling degree days 0 0  
Year to date cooling degree days 0 0  
Moisture  
Dew Point 20 °F    
Average Humidity 87    
Maximum Humidity 100    
Minimum Humidity 74    
Precipitation  
Precipitation T in 0.02 in 0.45 in (1987)
Month to date precipitation T 0.26  
Year to date precipitation T 0.26  
Sea Level Pressure  
Sea Level Pressure 30.19 in    
Wind  
Wind Speed 6 mph (ESE)    
Max Wind Speed 13 mph    
Max Gust Speed 16 mph    
Visibility 3 miles    
Events Fog , Snow    
T = Trace of Precipitation, MM = Missing Value Source: NWS Daily Summary

Daily Weather History Graph

Daily Weather History Graph

Search for Another Location

Airport or City:

Trip Planner

Search our weather history database for the weather conditions in past years. The results will help you decide how hot, cold, wet, or windy it might be!

Date:

Astronomy

Jan. 09, 2014 Rise Set
Actual Time 7:37 AM CST 5:15 PM CST
Civil Twilight 7:07 AM CST 5:44 PM CST
Nautical Twilight 6:34 AM CST 6:17 PM CST
Astronomical Twilight 6:02 AM CST 6:49 PM CST
Moon 12:41 PM CST (1/9) 1:47 AM CST (1/9)
Length of Visible Light 10h 36m
Length of Day
9h 37m
Waxing Gibbous, 66% of the Moon is Illuminated
Jan 9
Waxing Gibbous
Jan 15
Full
Jan 23
Last Quarter
Jan 30
New
Feb 6
First Quarter

Hourly Weather History & Observations

Time (CST) Temp. Windchill Dew Point Humidity Pressure Visibility Wind Dir Wind Speed Gust Speed Precip Events Conditions
12:53 AM 17.1 °F 5.8 °F 10.0 °F 74% 30.34 in 10.0 mi ENE 9.2 mph - N/A   Overcast
1:53 AM 17.1 °F 4.3 °F 10.0 °F 74% 30.34 in 10.0 mi ENE 11.5 mph - N/A   Overcast
2:53 AM 17.1 °F 6.6 °F 10.9 °F 77% 30.34 in 8.0 mi ENE 8.1 mph - N/A   Overcast
3:53 AM 16.0 °F 5.3 °F 12.9 °F 88% 30.32 in 4.0 mi ENE 8.1 mph - N/A   Overcast
4:53 AM 17.1 °F 8.7 °F 12.9 °F 84% 30.31 in 3.0 mi ENE 5.8 mph - N/A   Overcast
5:07 AM 17.1 °F 8.7 °F 14.0 °F 88% 30.26 in 2.5 mi ENE 5.8 mph - N/A   Overcast
5:12 AM 17.1 °F 10.0 °F 14.0 °F 88% 30.26 in 3.0 mi East 4.6 mph - N/A   Overcast
5:40 AM 17.1 °F 8.7 °F 14.0 °F 88% 30.25 in 2.0 mi East 5.8 mph - 0.00 in Snow Light Snow
5:53 AM 17.1 °F 8.7 °F 14.0 °F 88% 30.29 in 1.8 mi ENE 5.8 mph - 0.00 in Snow Light Snow
6:36 AM 17.1 °F 6.6 °F 14.0 °F 88% 30.23 in 2.0 mi ENE 8.1 mph - 0.00 in Snow Light Snow
6:51 AM 17.6 °F 8.2 °F 14.0 °F 86% 30.23 in 2.5 mi ENE 6.9 mph - 0.00 in   Overcast
6:53 AM 17.1 °F 7.6 °F 14.0 °F 88% 30.28 in 3.0 mi ENE 6.9 mph - 0.00 in   Overcast
7:53 AM 17.1 °F 10.0 °F 14.0 °F 88% 30.29 in 5.0 mi ENE 4.6 mph - N/A   Overcast
8:13 AM 17.1 °F 8.7 °F 14.0 °F 88% 30.23 in 4.0 mi East 5.8 mph - N/A   Overcast
8:53 AM 17.1 °F 10.0 °F 14.0 °F 88% 30.29 in 3.0 mi East 4.6 mph - N/A   Overcast
9:06 AM 18.0 °F 11.1 °F 14.0 °F 84% 30.24 in 2.5 mi East 4.6 mph - N/A   Overcast
9:37 AM 19.0 °F 12.3 °F 15.1 °F 85% 30.24 in 2.5 mi East 4.6 mph - N/A   Overcast
9:43 AM 19.0 °F 12.3 °F 15.1 °F 85% 30.24 in 3.0 mi East 4.6 mph - N/A   Overcast
9:53 AM 19.0 °F 13.9 °F 15.1 °F 85% 30.29 in 3.0 mi East 3.5 mph - N/A   Overcast
10:20 AM 19.0 °F 11.1 °F 15.1 °F 85% 30.24 in 5.0 mi SE 5.8 mph - N/A   Overcast
10:40 AM 19.0 °F 12.3 °F 16.0 °F 88% 30.24 in 5.0 mi ESE 4.6 mph - N/A   Overcast
10:53 AM 19.9 °F 12.1 °F 16.0 °F 85% 30.28 in 4.0 mi ESE 5.8 mph - N/A   Overcast
11:17 AM 19.9 °F 14.9 °F 17.1 °F 89% 30.22 in 2.5 mi ESE 3.5 mph - N/A   Overcast
11:34 AM 19.9 °F 13.4 °F 17.1 °F 89% 30.20 in 1.8 mi ESE 4.6 mph - N/A   Overcast
11:49 AM 21.2 °F 14.9 °F 17.6 °F 86% 30.19 in 2.5 mi SSE 4.6 mph - N/A   Overcast
11:53 AM 21.0 °F 14.6 °F 18.0 °F 88% 30.24 in 3.0 mi ESE 4.6 mph - N/A   Overcast
12:53 PM 23.0 °F 17.0 °F 19.9 °F 88% 30.19 in 4.0 mi South 4.6 mph - N/A   Overcast
1:53 PM 25.0 °F 19.3 °F 21.9 °F 88% 30.17 in 4.0 mi South 4.6 mph - N/A   Overcast
2:53 PM 26.1 °F 19.4 °F 23.0 °F 88% 30.15 in 4.0 mi South 5.8 mph - N/A   Overcast
3:53 PM 27.0 °F 23.0 °F 24.1 °F 89% 30.14 in 3.0 mi SSE 3.5 mph - N/A   Overcast
5:53 PM 27.0 °F 19.5 °F 25.0 °F 92% 30.13 in 3.0 mi SE 6.9 mph - N/A   Overcast
6:17 PM 27.0 °F 18.0 °F 25.0 °F 92% 30.08 in 2.5 mi SSE 9.2 mph - N/A   Overcast
6:27 PM 27.0 °F 18.7 °F 26.1 °F 96% 30.07 in 2.0 mi SSE 8.1 mph - N/A   Overcast
6:37 PM 27.0 °F 19.5 °F 26.1 °F 96% 30.07 in 1.5 mi SE 6.9 mph - N/A   Overcast
6:53 PM 27.0 °F 20.5 °F 26.1 °F 96% 30.11 in 1.5 mi SE 5.8 mph - N/A   Overcast
7:10 PM 27.0 °F 20.5 °F 26.1 °F 96% 30.07 in 2.0 mi SE 5.8 mph - N/A   Overcast
7:23 PM 27.0 °F 19.5 °F 26.1 °F 96% 30.06 in 1.8 mi SE 6.9 mph - N/A   Overcast
7:51 PM 26.6 °F 20.0 °F 26.6 °F 100% 30.07 in 1.8 mi SSE 5.8 mph - N/A   Overcast
7:53 PM 28.0 °F 22.8 °F 27.0 °F 96% 30.11 in 1.8 mi SSE 4.6 mph - N/A   Overcast
8:41 PM 28.0 °F 21.7 °F 27.0 °F 96% 30.06 in 1.0 mi SE 5.8 mph - N/A   Overcast
8:53 PM 28.0 °F 21.7 °F 27.0 °F 96% 30.10 in 0.8 mi SE 5.8 mph - N/A   Overcast
9:40 PM 28.9 °F 21.9 °F 28.0 °F 96% 30.05 in 0.5 mi SE 6.9 mph - N/A Fog Light Freezing Fog
9:53 PM 28.9 °F 21.9 °F 28.0 °F 96% 30.09 in 0.5 mi SSE 6.9 mph - N/A Fog Light Freezing Fog
10:15 PM 28.9 °F 21.1 °F 28.9 °F 100% 30.04 in 0.8 mi SSE 8.1 mph - N/A   Overcast
10:25 PM 30.0 °F 21.1 °F 28.9 °F 96% 30.04 in 0.5 mi SSE 10.4 mph - N/A Fog Light Freezing Fog
10:53 PM 30.0 °F 21.1 °F 30.0 °F 100% 30.08 in 0.5 mi SSE 10.4 mph - N/A Fog Light Freezing Fog
11:53 PM 30.9 °F 23.5 °F 30.0 °F 96% 30.03 in 0.2 mi SSE 8.1 mph - N/A Fog Light Freezing Fog